Regional Weather Roundup
Issued by NWS

Home | Current Version | Previous Version | Graphics & Text | Print | Product List | Glossary On
Versions: 1 2 3 4 5 6 7 8 9 10 11 12 13 14 15 16 17 18 19 20 21 22 23 24 25 26 27 28 29 30 31 32 33 34 35 36 37 38 39 40 41 42 43 44 45 46 47 48 49 50
000
ASUS43 KIND 230659
RWRIN

WEATHER ROUNDUP FOR INDIANA
NATIONAL WEATHER SERVICE INDIANAPOLIS IN
200 AM EST THU FEB 23 2017

NOTE: "FAIR" INDICATES FEW OR NO CLOUDS BELOW 12,000 FEET WITH NO
SIGNIFICANT WEATHER AND/OR OBSTRUCTIONS TO VISIBILITY.

* - STATION DOES NOT REPORT WEATHER SUCH AS PRECIPITATION OR FOG.

+ - STATION NOT QUALITY CONTROLLED BY THE NATIONAL WEATHER SERVICE.
    USE DATA WITH CAUTION...ESPECIALLY DEWPOINT AND RELATIVE
    HUMIDITY OBSERVATIONS.

INZ001>003-010>013-019-020-230800-
NORTHWEST INDIANA

CITY           SKY/WX    TMP DP  RH WIND       PRES   REMARKS
KNOX *+        CLEAR     55  37  50 SW13      29.67R
MICHIGAN CITY+ CLEAR     55  54  94 SW9       29.66R
RENSSELAER +   CLEAR     55  54  94 SW12G17   29.69S

$$

LMZ046-743>745-230800-
SOUTHERN LAKE MICHIGAN

STATION/POSITION TIME  TEMP    WIND        PRES    WAVE
                       AIR SEA DIR/SP/G            HT
                 (UTC) (F)     (DEG/KT/KT) (MB)    (FT)
BURNS HARBOR     0640   58     230/ 17/ 22 1004.4R
MICHIGAN CITY    0630   58     190/ 18/ 20   N/A

$$

INZ004-005-014>016-021>024-230800-
NORTH CENTRAL INDIANA

CITY           SKY/WX    TMP DP  RH WIND       PRES   REMARKS
GOSHEN         PTCLDY    58  51  78 SW17G28   29.67R
SOUTH BEND     CLEAR     57  53  86 SW16G26   29.67R

$$

INZ006>009-017-018-025>027-230800-
NORTHEAST INDIANA

CITY           SKY/WX    TMP DP  RH WIND       PRES   REMARKS
ANGOLA *+      PTCLDY    55  46  71 SW12      29.67S
FORT WAYNE     PTCLDY    55  52  89 S13       29.70F
KENDALLVILLE + PTCLDY    55  53  95 SW12G18   29.68S

$$

INZ028-029-035-036-043>045-051>053-230800-
WEST CENTRAL INDIANA

CITY           SKY/WX    TMP DP  RH WIND       PRES   REMARKS
LAFAYETTE      CLEAR     57  53  86 SW6       29.71S
TERRE HAUTE    PTCLDY    53  50  89 S7        29.76R

$$

INZ030>032-037>040-046>048-054>057-064-065-230800-
CENTRAL INDIANA

CITY           SKY/WX    TMP DP  RH WIND       PRES   REMARKS
GREENWOOD *+   MOCLDY    54  53  98 CALM      29.77S
INDIANAPOLIS   PTCLDY    57  53  86 S9        29.75S
-EAGLE CREEK   CLEAR     53  50  89 S3        29.74F FOG
KOKOMO +       CLEAR     54  52  93 S12       29.73S
MT COMFORT *+  CLOUDY    54  52  94 S7        29.76F
SHELBYVILLE    MOCLDY    55  51  86 S7        29.76S

$$

INZ033-034-041-042-049-050-058-059-230800-
EAST CENTRAL INDIANA

CITY           SKY/WX    TMP DP  RH WIND       PRES   REMARKS
MUNCIE         CLEAR     58  53  84 S7        29.74F

$$

INZ060-061-067>069-081>083-085>088-230800-
SOUTHWEST INDIANA

CITY           SKY/WX    TMP DP  RH WIND       PRES   REMARKS
EVANSVILLE     MOCLDY    57  53  86 SW6       29.79R
HUNTINGBURG *+ PTCLDY    59  55  87 S10       29.79R

$$

INZ062-063-066-070>080-084-089>092-230800-
SOUTH CENTRAL AND SOUTHEAST INDIANA

CITY           SKY/WX    TMP DP  RH WIND       PRES   REMARKS
BLOOMINGTON    PTCLDY    57  53  86 SW7       29.77R
MADISON *+     CLEAR     55  52  88 S6        29.81R
SEYMOUR +      CLEAR     55  54  94 S6        29.77S

$$





USA.gov is the U.S. government's official web portal to all federal, state and local government web resources and services.